Beaufort, SC

3:56 AM EST on February 08, 2016 (GMT -0500)
Beaufort

Weather History for KARW - January, 2013

Change the Weather History Date:

Sunday, January 27, 2013

  Actual Average (KNBC) Record (KNBC)
Temperature  
Mean Temperature 48 °F -  
Max Temperature 55 °F 57 °F 81 °F (1950)
Min Temperature 42 °F 38 °F 17 °F (1940)
Degree Days  
Heating Degree Days 16    
Moisture  
Dew Point 38 °F    
Average Humidity 69    
Maximum Humidity 87    
Minimum Humidity 44    
Precipitation  
Precipitation 0.00 in - - ()
Sea Level Pressure  
Sea Level Pressure 30.43 in    
Wind  
Wind Speed 11 mph (NE)    
Max Wind Speed 16 mph    
Max Gust Speed 17 mph    
Visibility 8 miles    
Events      
Averages and records for this station are not official NWS values.
T = Trace of Precipitation, MM = Missing Value Source: NWS Daily Summary

Daily Weather History Graph

Daily Weather History Graph

Search for Another Location

Airport or City:

Trip Planner

Search our weather history database for the weather conditions in past years. The results will help you decide how hot, cold, wet, or windy it might be!

Date:

Astronomy

Jan. 27, 2013 Rise Set
Actual Time 7:19 AM EST 5:51 PM EST
Civil Twilight 6:53 AM EST 6:17 PM EST
Nautical Twilight 6:24 AM EST 6:46 PM EST
Astronomical Twilight 5:54 AM EST 7:16 PM EST
Moon 6:38 PM EST (1/27) 7:16 AM EST (1/27)
Length of Visible Light 11h 23m
Length of Day
10h 31m
Full, 100% of the Moon is Illuminated
Jan 27
Full
Feb 3
Last Quarter
Feb 10
New
Feb 17
First Quarter
Feb 25
Full

Hourly Weather History & Observations

Time (EST) Temp. Windchill Dew Point Humidity Pressure Visibility Wind Dir Wind Speed Gust Speed Precip Events Conditions
12:15 AM 46.4 °F 42.4 °F 41.0 °F 81% 30.31 in 7.0 mi NE 8.1 mph - N/A   Clear
12:35 AM 46.4 °F 41.9 °F 41.0 °F 81% 30.31 in 7.0 mi NE 9.2 mph - N/A   Clear
12:55 AM 46.4 °F 42.9 °F 41.0 °F 81% 30.31 in 7.0 mi NE 6.9 mph - N/A   Clear
1:15 AM 46.4 °F 42.4 °F 41.0 °F 81% 30.32 in 7.0 mi NE 8.1 mph - N/A   Clear
1:35 AM 46.4 °F 41.9 °F 41.0 °F 81% 30.32 in 7.0 mi NE 9.2 mph - N/A   Clear
1:55 AM 46.4 °F 41.9 °F 41.0 °F 81% 30.33 in 7.0 mi NE 9.2 mph - N/A   Clear
2:15 AM 44.6 °F 39.2 °F 39.2 °F 81% 30.34 in 7.0 mi NE 10.4 mph - N/A   Clear
2:35 AM 42.8 °F 38.0 °F 39.2 °F 87% 30.34 in 7.0 mi NNE 8.1 mph - N/A   Clear
2:55 AM 42.8 °F 38.6 °F 37.4 °F 81% 30.34 in 7.0 mi NE 6.9 mph - N/A   Clear
3:15 AM 42.8 °F 37.5 °F 37.4 °F 81% 30.34 in 7.0 mi NE 9.2 mph - N/A   Clear
3:35 AM 42.8 °F 38.0 °F 37.4 °F 81% 30.35 in 7.0 mi NE 8.1 mph - N/A   Clear
3:55 AM 42.8 °F 37.5 °F 37.4 °F 81% 30.35 in 10.0 mi NNE 9.2 mph - N/A   Clear
4:15 AM 42.8 °F 36.6 °F 39.2 °F 87% 30.35 in 7.0 mi NE 11.5 mph - N/A   Clear
4:35 AM 42.8 °F 36.6 °F 39.2 °F 87% 30.36 in 7.0 mi NE 11.5 mph - N/A   Clear
4:55 AM 42.8 °F 36.6 °F 37.4 °F 81% 30.37 in 7.0 mi NNE 11.5 mph - N/A   Clear
5:15 AM 42.8 °F 36.6 °F 37.4 °F 81% 30.37 in 10.0 mi NE 11.5 mph - N/A   Clear
5:35 AM 42.8 °F 35.8 °F 37.4 °F 81% 30.38 in 10.0 mi NE 13.8 mph - N/A   Clear
5:55 AM 42.8 °F 35.1 °F 35.6 °F 76% 30.38 in 7.0 mi NE 16.1 mph - N/A   Clear
6:15 AM 42.8 °F 35.1 °F 35.6 °F 76% 30.39 in 7.0 mi NE 16.1 mph - N/A   Clear
6:35 AM 42.8 °F 35.4 °F 35.6 °F 76% 30.39 in 7.0 mi NE 15.0 mph - N/A   Clear
6:55 AM 42.8 °F 35.8 °F 33.8 °F 70% 30.40 in 7.0 mi NE 13.8 mph - N/A   Clear
7:15 AM 42.8 °F 35.4 °F 33.8 °F 70% 30.41 in 7.0 mi NE 15.0 mph - N/A   Clear
7:35 AM 42.8 °F 36.2 °F 33.8 °F 70% 30.42 in 7.0 mi NE 12.7 mph - N/A   Clear
7:55 AM 42.8 °F 35.8 °F 33.8 °F 70% 30.43 in 7.0 mi NE 13.8 mph - N/A   Clear
8:15 AM 42.8 °F 35.4 °F 33.8 °F 70% 30.43 in 7.0 mi NNE 15.0 mph - N/A   Clear
8:55 AM 42.8 °F 35.4 °F 33.8 °F 70% 30.45 in 7.0 mi NNE 15.0 mph - N/A   Clear
9:15 AM 44.6 °F 38.4 °F 33.8 °F 66% 30.46 in 5.0 mi NE 12.7 mph - N/A   Haze
9:35 AM 44.6 °F 37.8 °F 35.6 °F 71% 30.47 in 7.0 mi NNE 15.0 mph - N/A   Clear
9:55 AM 46.4 °F 40.1 °F 35.6 °F 66% 30.47 in 7.0 mi NNE 15.0 mph - N/A   Clear
10:15 AM 46.4 °F 39.8 °F 35.6 °F 66% 30.48 in 7.0 mi NNE 16.1 mph - N/A   Clear
10:35 AM 50.0 °F - 37.4 °F 62% 30.48 in 7.0 mi NNE 13.8 mph - N/A   Clear
10:55 AM 50.0 °F - 37.4 °F 62% 30.48 in 5.0 mi NE 16.1 mph - N/A   Haze
11:15 AM 50.0 °F - 37.4 °F 62% 30.48 in 7.0 mi NE 16.1 mph - N/A   Mostly Cloudy
11:35 AM 51.8 °F - 37.4 °F 58% 30.48 in 7.0 mi NE 13.8 mph - N/A   Overcast
11:55 AM 51.8 °F - 39.2 °F 62% 30.47 in 7.0 mi ENE 11.5 mph 16.1 mph N/A   Overcast
12:15 PM 53.6 °F - 39.2 °F 58% 30.46 in 5.0 mi NE 12.7 mph 17.3 mph N/A   Haze
12:35 PM 53.6 °F - 41.0 °F 62% 30.45 in 7.0 mi ENE 11.5 mph 17.3 mph N/A   Scattered Clouds
12:55 PM 53.6 °F - 39.2 °F 58% 30.45 in 7.0 mi ENE 11.5 mph - N/A   Clear
1:15 PM 55.4 °F - 37.4 °F 51% 30.45 in 7.0 mi ENE 10.4 mph - N/A   Clear
1:35 PM 55.4 °F - 35.6 °F 47% 30.45 in 5.0 mi East 9.2 mph - N/A   Haze
1:55 PM 55.4 °F - 37.4 °F 51% 30.45 in 7.0 mi ENE 11.5 mph 17.3 mph N/A   Clear
2:15 PM 55.4 °F - 37.4 °F 51% 30.44 in 10.0 mi ENE 13.8 mph - N/A   Clear
2:35 PM 55.4 °F - 37.4 °F 51% 30.44 in 10.0 mi ENE 10.4 mph 17.3 mph N/A   Clear
2:55 PM 55.4 °F - 37.4 °F 51% 30.44 in 10.0 mi East 12.7 mph 17.3 mph N/A   Clear
3:15 PM 55.4 °F - 39.2 °F 54% 30.44 in 7.0 mi ENE 9.2 mph - N/A   Clear
3:35 PM 55.4 °F - 39.2 °F 54% 30.43 in 10.0 mi East 11.5 mph - N/A   Clear
3:55 PM 55.4 °F - 37.4 °F 51% 30.43 in 7.0 mi ENE 12.7 mph - N/A   Clear
4:15 PM 55.4 °F - 33.8 °F 44% 30.44 in 10.0 mi East 12.7 mph - N/A   Clear
4:35 PM 53.6 °F - 35.6 °F 51% 30.44 in 10.0 mi ENE 8.1 mph - N/A   Clear
4:55 PM 53.6 °F - 37.4 °F 54% 30.44 in 10.0 mi East 11.5 mph - N/A   Clear
5:15 PM 51.8 °F - 39.2 °F 62% 30.45 in 10.0 mi ENE 6.9 mph - N/A   Clear
5:35 PM 51.8 °F - 37.4 °F 58% 30.45 in 10.0 mi East 11.5 mph - N/A   Clear
5:55 PM 50.0 °F - 37.4 °F 62% 30.46 in 10.0 mi ENE 10.4 mph - N/A   Clear
6:15 PM 50.0 °F - 37.4 °F 62% 30.47 in 10.0 mi ENE 6.9 mph - N/A   Clear
6:35 PM 50.0 °F - 37.4 °F 62% 30.47 in 10.0 mi East 12.7 mph 16.1 mph N/A   Clear
6:55 PM 48.2 °F - 37.4 °F 66% 30.48 in 10.0 mi ENE 6.9 mph - N/A   Mostly Cloudy
7:15 PM 48.2 °F - 37.4 °F 66% 30.48 in 10.0 mi ENE 10.4 mph - N/A   Overcast
7:35 PM 46.4 °F 41.1 °F 37.4 °F 71% 30.48 in 10.0 mi ENE 11.5 mph - N/A   Overcast
7:55 PM 46.4 °F 41.9 °F 37.4 °F 71% 30.48 in 10.0 mi ENE 9.2 mph - N/A   Overcast
8:15 PM 46.4 °F 41.1 °F 37.4 °F 71% 30.49 in 10.0 mi ENE 11.5 mph 16.1 mph N/A   Scattered Clouds
8:35 PM 46.4 °F 41.1 °F 37.4 °F 71% 30.48 in 10.0 mi NE 11.5 mph - N/A   Clear
8:55 PM 46.4 °F 41.5 °F 37.4 °F 71% 30.47 in 10.0 mi NE 10.4 mph - N/A   Scattered Clouds
9:15 PM 46.4 °F 40.7 °F 37.4 °F 71% 30.47 in 10.0 mi ENE 12.7 mph - N/A   Clear
9:35 PM 46.4 °F 40.7 °F 39.2 °F 76% 30.47 in 7.0 mi ENE 12.7 mph - N/A   Clear
9:55 PM 46.4 °F 40.4 °F 39.2 °F 76% 30.47 in 10.0 mi NE 13.8 mph - N/A   Clear
10:15 PM 46.4 °F 41.1 °F 39.2 °F 76% 30.47 in 7.0 mi ENE 11.5 mph - N/A   Scattered Clouds
10:35 PM 46.4 °F 41.1 °F 39.2 °F 76% 30.47 in 7.0 mi NE 11.5 mph 16.1 mph N/A   Overcast
10:55 PM 46.4 °F 40.7 °F 39.2 °F 76% 30.46 in 10.0 mi NE 12.7 mph - N/A   Overcast
11:35 PM 44.6 °F 38.4 °F 39.2 °F 81% 30.46 in 7.0 mi NE 12.7 mph - N/A   Scattered Clouds
11:55 PM 44.6 °F 38.8 °F 39.2 °F 81% 30.45 in 10.0 mi NE 11.5 mph - N/A   Overcast